Temperature
22 21 21 21 20 20 20 20 20 19 19 19 19 19 18 18 18 18 19 18 18 18 18 18 18 18 18 18 18 18 18 18 18 18 18 18 18 18 18 18 18 18 18
22 21 21 20 20 20 19 19 19 19 19 19 18 18 18 18 18 18 18 18 17 18 18 18 18 17 17 17 17 17 18 18 18 17 17 17 18 18 19 18 18 18 18
20 20 21 21 21 21 20 20 20 20 19 19 18 18 18 18 17 17 17 18 18 18 17 17 17 17 17 17 17 17 17 17 17 17 16 16 16 18 18 18 18 17 18
21 21 22 22 22 21 21 20 20 20 19 19 18 18 17 16 16 16 16 17 17 17 17 17 16 16 16 16 17 17 16 16 16 16 15 15 16 16 16 17 17 17 17
22 22 23 23 22 21 21 20 20 19 19 18 18 17 16 16 16 16 16 16 17 17 17 16 16 16 16 16 16 16 16 16 15 15 15 15 15 15 15 15 16 16 17
22 23 23 22 22 21 20 20 19 19 19 18 17 16 16 16 15 16 16 16 16 16 16 16 16 15 16 16 16 16 15 15 15 15 15 15 15 15 15 14 14 15 16
23 23 22 22 22 21 20 20 19 19 19 18 17 16 16 15 15 16 15 15 15 15 14 15 15 15 15 15 15 15 15 14 14 14 15 14 14 15 15 15 14 15 15
23 23 22 22 21 21 20 20 19 19 18 18 17 17 16 15 15 15 14 14 14 13 13 13 14 15 15 14 15 15 14 14 14 14 14 14 14 14 15 15 15 14 14
22 22 23 22 21 21 20 20 19 19 18 17 16 16 15 15 14 14 13 13 13 13 13 13 13 14 14 14 14 14 13 13 14 14 14 13 14 15 14 14 14 14 14
22 23 22 22 21 21 20 20 19 19 17 16 16 16 15 14 14 13 13 12 12 13 13 12 13 13 14 14 13 13 13 13 13 14 14 13 14 14 13 14 14 14 14
22 22 22 21 21 21 20 20 20 19 17 16 16 15 14 14 13 12 13 12 12 12 12 12 12 13 13 13 13 13 13 13 13 13 13 13 13 13 13 13 13 13 14
22 22 21 21 21 20 20 20 20 18 17 16 15 15 14 14 13 12 12 12 12 12 12 12 12 12 12 13 13 13 12 13 12 13 13 13 13 13 13 13 13 13 13
19 19 20 21 21 20 20 20 19 18 17 16 15 15 14 13 13 13 12 12 12 12 12 11 12 12 11 12 12 12 12 12 13 13 13 13 13 13 13 13 13 13 13
17 17 18 18 19 20 20 19 19 18 17 16 15 15 15 14 13 13 12 12 12 12 12 12 12 12 11 11 11 12 12 12 12 12 13 13 13 13 13 13 13 13 13
15 15 16 17 17 17 18 18 18 18 17 16 16 15 15 14 13 13 13 12 12 12 11 12 12 11 11 10 11 11 11 12 13 13 13 12 12 12 12 12 12 13 13
13 14 15 16 16 16 16 16 17 17 17 17 16 15 14 14 13 13 13 12 12 11 11 12 12 11 11 11 11 11 12 12 13 12 12 12 12 12 11 12 12 12 12
12 12 14 15 15 15 14 15 16 16 17 16 16 16 15 14 13 13 13 12 12 11 11 11 12 11 12 11 12 12 12 12 12 12 12 12 12 12 11 11 11 11 11
12 12 12 13 13 13 13 13 14 15 16 16 16 16 15 14 13 13 13 12 12 11 11 12 12 12 12 12 12 12 12 12 11 11 11 12 12 11 11 11 11 11 11
12 12 12 12 12 12 13 12 12 14 15 15 15 15 15 14 14 13 13 12 11 11 11 12 12 12 12 12 12 12 12 11 11 11 11 12 12 11 11 11 11 11 11
10 10 11 11 11 10 11 11 11 11 12 13 13 13 15 15 14 14 13 12 11 11 12 12 11 12 12 12 12 11 11 11 11 11 11 11 11 11 11 11 11 11 10
10 10 10 10 10 10 10 10 10 10 10 11 12 13 13 14 14 14 13 12 12 11 12 12 12 12 12 11 11 11 11 11 11 11 11 11 11 10 10 10 10 10 10
10 10 10 10 10 10 10 10 9 9 9 9 10 11 11 13 14 14 13 12 12 11 12 12 12 12 12 12 11 11 11 11 11 11 11 11 10 10 9 9 9 9 9
10 10 9 9 9 10 9 9 9 9 9 9 8 9 9 11 13 13 12 12 12 12 11 11 12 12 12 12 12 11 11 12 11 11 11 10 9 9 9 9 9 8 8
9 9 9 9 9 9 9 9 8 8 8 8 8 8 9 9 11 13 12 12 12 12 12 11 12 11 11 12 12 12 12 11 11 11 10 10 9 9 9 9 9 8 8
9 9 9 9 9 9 9 9 8 8 8 8 8 8 8 9 9 11 12 12 12 12 12 12 12 12 11 12 12 12 11 11 11 10 10 10 10 9 9 9 9 9 9
9 9 9 9 9 8 8 8 8 8 8 8 7 7 8 8 9 11 12 12 11 11 12 12 12 12 12 12 11 11 11 11 11 10 10 10 10 10 9 9 9 9 9
Wind_Speed
5 3 3 4 3 1 0 3 3 1 1 1 1 2 4 4 5 6 6 6 7 8 7 7 7 8 10 11 9 6 6 6 4 2 5 7 10 13 13 11 10 11 10
4 3 2 2 0 2 2 1 1 3 1 2 3 4 4 5 5 6 7 8 8 8 7 8 8 8 7 8 9 6 4 4 6 5 2 4 5 8 11 12 11 9 9
6 5 4 4 4 2 3 5 5 5 5 4 3 3 4 5 4 5 6 7 7 8 9 9 9 10 9 10 10 9 10 8 6 9 6 5 5 3 3 4 4 5 6
9 8 8 8 8 8 8 8 8 8 7 7 4 4 4 4 5 5 6 9 10 10 10 10 11 11 9 9 10 10 9 9 8 7 9 7 4 3 4 4 4 6 4
11 12 12 11 10 9 9 8 8 8 9 8 6 3 3 4 4 6 9 11 11 11 11 10 10 11 10 10 9 9 10 10 10 8 5 5 5 5 4 5 5 4 3
11 12 11 8 7 6 7 7 5 7 7 4 2 2 2 4 5 8 9 10 11 12 13 10 9 10 9 9 9 9 10 10 10 8 7 5 5 5 5 4 4 2 3
9 9 10 7 6 6 8 6 4 6 5 5 4 5 4 3 3 6 8 12 12 13 13 10 8 8 9 8 8 7 7 7 8 9 6 6 6 5 5 4 3 1 2
8 8 9 7 6 7 6 5 7 7 6 7 7 7 4 2 2 5 8 10 11 12 12 10 8 6 6 6 7 7 7 7 9 9 7 6 7 5 5 4 3 2 1
7 9 9 9 8 7 5 6 8 8 8 5 5 5 3 1 3 5 7 9 10 9 8 7 6 4 4 6 6 7 8 8 8 7 7 6 5 4 4 3 3 4 2
4 4 6 7 6 5 3 5 8 8 7 7 7 6 5 2 1 4 7 8 10 10 9 9 7 3 1 3 5 5 5 5 5 4 6 4 1 3 5 4 3 4 3
4 6 7 8 8 7 5 4 4 4 5 7 7 7 6 4 2 3 5 7 8 8 8 9 8 5 4 3 1 2 3 3 3 4 2 6 8 5 3 4 5 3 3
5 5 7 8 7 7 5 5 5 6 7 9 8 6 6 5 4 3 4 6 7 8 7 8 10 9 7 5 3 4 4 3 3 3 5 8 8 7 5 6 5 3 2
12 11 7 7 8 7 6 6 7 8 8 9 8 7 7 7 6 5 4 5 6 7 7 7 8 10 10 9 7 7 4 2 3 5 7 7 9 8 7 7 6 4 5
14 18 16 9 8 6 6 7 8 9 9 9 9 8 8 8 7 6 5 5 6 5 6 7 6 8 7 7 5 6 5 3 4 6 8 10 9 8 8 7 6 7 8
14 14 15 14 12 11 9 7 8 9 9 8 9 9 8 7 7 6 6 4 3 3 4 4 5 5 3 1 3 5 5 7 9 10 11 10 11 11 8 8 6 8 7
12 11 10 10 9 12 16 13 10 9 9 8 9 8 9 9 8 7 7 5 3 2 3 3 3 3 1 5 5 4 6 9 11 10 9 9 10 9 11 14 13 11 8
14 13 11 10 9 9 9 12 11 10 7 9 10 10 10 10 9 8 7 6 5 5 7 7 4 2 2 2 10 11 7 8 9 8 9 9 8 10 11 13 13 12 9
10 11 9 8 8 9 10 12 13 12 9 10 10 10 11 11 9 9 8 7 6 6 6 5 6 4 6 11 14 13 9 9 8 8 7 8 7 9 10 9 10 9 8
10 10 10 7 7 7 9 12 13 13 12 10 9 10 13 13 11 9 9 7 6 6 6 6 6 6 5 10 13 12 8 8 7 6 7 9 9 11 13 11 10 10 9
18 18 15 9 7 8 7 8 11 13 10 10 11 10 12 15 13 11 9 6 6 7 8 7 7 7 5 7 13 11 7 7 6 6 6 9 11 12 13 10 9 9 6
16 18 16 10 7 6 5 7 8 10 12 11 11 11 14 14 13 10 8 8 8 9 8 7 6 6 6 6 10 13 7 7 7 5 4 5 11 11 11 10 7 4 2
16 16 13 9 8 5 4 7 7 6 8 11 12 11 11 12 12 11 9 10 11 10 9 8 6 4 5 6 8 14 11 10 8 7 5 4 8 9 8 8 8 8 6
15 12 11 12 10 8 6 7 7 6 6 9 11 11 9 10 11 12 11 9 11 10 9 8 7 6 5 4 4 11 16 14 9 8 9 9 8 7 5 7 8 8 6
15 14 13 12 12 11 10 10 9 7 7 11 11 10 9 9 11 10 11 11 10 11 10 9 8 7 6 5 5 6 11 12 9 8 7 6 4 4 3 4 5 4 6
16 16 14 15 14 13 12 12 11 9 7 9 12 8 8 10 10 12 12 12 13 13 12 10 11 11 9 9 13 13 11 10 10 8 4 2 2 2 2 3 3 3 6
17 18 19 18 14 11 11 11 14 12 8 7 9 7 6 10 9 10 8 5 9 16 17 17 14 11 12 16 18 18 19 18 15 7 4 3 4 4 5 5 4 3 5
Wind_Direction
154 160 102 91 91 40 210 235 255 258 175 268 298 284 269 266 273 279 275 287 283 269 254 252 235 219 224 232 221 209 207 212 181 207 266 257 245 248 254 256 255 254 252
166 194 96 13 99 90 28 76 233 275 234 209 231 240 249 260 263 272 282 285 282 274 250 247 246 233 226 229 221 205 195 213 177 183 228 290 279 246 245 247 249 258 256
183 202 180 229 249 210 209 193 218 223 206 205 229 290 309 309 309 302 296 291 277 273 267 249 240 238 225 228 224 207 213 231 208 194 197 219 238 278 270 256 262 287 262
171 188 187 195 199 197 197 205 214 218 218 213 213 240 257 275 279 283 287 291 290 285 277 267 252 240 225 224 225 211 218 223 231 212 216 225 213 209 284 299 305 321 331
173 193 203 206 207 202 204 210 220 224 225 221 218 240 281 291 308 322 322 312 302 288 276 263 261 246 228 224 220 216 214 213 220 216 203 215 212 204 210 266 289 309 312
200 214 225 222 225 229 223 227 231 239 238 224 178 108 58 12 354 338 326 317 309 299 287 270 260 246 223 212 219 215 212 215 215 208 196 183 182 184 187 227 262 301 320
225 234 243 236 227 229 234 250 220 216 196 162 134 124 115 78 355 322 323 316 309 300 287 276 268 250 228 208 201 197 203 213 216 212 202 202 208 172 162 187 215 135 354
243 243 240 224 217 218 226 212 196 209 192 175 157 145 135 101 352 328 315 313 310 303 291 279 274 257 237 210 194 210 213 218 226 221 208 202 215 182 158 172 171 113 59
243 230 216 193 190 194 187 192 206 218 202 178 132 134 149 96 7 334 326 328 324 328 330 317 301 285 240 217 205 221 223 216 219 213 196 188 199 175 142 159 151 116 101
213 204 178 170 179 183 174 191 212 213 196 174 172 169 178 154 359 327 332 331 329 338 349 343 337 331 285 204 212 223 217 198 193 189 180 166 128 99 131 147 128 116 137
208 211 206 199 189 180 171 184 201 206 189 196 193 181 184 186 234 299 316 319 322 336 355 4 347 343 335 291 192 175 107 117 88 57 108 122 110 109 137 109 116 132 128
312 273 230 205 195 198 194 176 175 188 195 204 211 209 205 205 223 266 293 301 318 337 358 13 16 11 23 26 56 75 95 120 144 145 115 112 111 107 99 92 98 107 119
1 348 307 232 220 219 213 194 180 198 203 202 209 221 215 216 226 237 255 280 309 331 355 13 18 29 28 30 31 75 80 113 138 118 109 105 101 94 88 83 88 95 92
22 12 3 328 287 257 232 219 209 210 207 205 208 215 213 211 220 235 246 276 301 319 6 18 27 49 32 20 45 90 121 142 103 87 80 72 75 85 88 84 74 85 88
21 19 12 12 3 339 308 265 241 225 217 208 210 212 209 209 216 228 233 244 273 325 38 61 80 67 59 261 182 181 160 110 82 66 61 61 67 74 79 84 79 84 88
11 8 11 18 8 356 341 310 280 255 236 225 221 204 204 210 212 219 217 208 220 210 172 182 128 111 158 271 219 155 104 91 84 78 66 55 57 73 79 78 71 71 82
359 348 351 352 345 335 337 339 319 289 256 242 224 198 199 208 211 209 205 201 199 178 190 188 176 181 305 119 109 101 96 96 90 83 76 68 55 69 75 69 62 56 59
324 309 308 316 321 323 329 333 339 311 270 233 221 196 193 204 207 201 200 199 175 174 168 173 176 128 36 78 90 91 89 87 85 91 99 95 75 78 85 72 55 39 31
291 285 284 285 297 309 328 338 332 339 327 289 241 208 191 195 203 201 192 190 167 166 173 175 170 114 66 88 95 95 92 92 90 91 88 88 81 80 82 78 65 47 25
320 318 308 298 304 310 333 347 329 322 326 322 308 267 205 188 200 199 178 174 170 170 171 168 174 151 131 109 113 115 119 109 92 71 64 79 86 81 81 83 77 66 11
299 303 307 299 282 294 328 327 336 331 328 317 318 302 245 193 195 187 171 166 167 162 168 170 171 172 161 137 136 143 140 139 128 117 100 84 95 94 90 88 77 83 49
293 300 305 291 276 288 312 311 314 310 321 318 316 299 266 221 188 179 172 169 162 165 171 170 171 187 181 163 158 166 161 154 144 149 150 142 125 119 104 89 89 89 83
283 280 293 296 288 284 282 280 277 281 302 303 302 300 289 238 202 178 170 169 166 171 176 176 176 183 183 175 184 176 162 150 146 154 159 165 149 117 84 66 81 91 88
284 283 286 286 288 285 274 260 256 271 296 299 294 296 296 269 220 189 171 173 178 180 179 177 179 175 175 173 161 147 138 138 141 143 146 157 136 115 103 82 73 99 115
276 275 274 278 275 276 280 276 258 250 251 276 279 271 284 278 234 202 184 182 187 186 182 183 176 173 183 189 172 161 156 155 149 135 125 128 140 136 121 108 113 119 116
270 266 266 270 263 258 263 268 266 253 248 263 272 262 271 280 257 208 184 175 192 193 184 173 171 183 176 167 171 167 160 155 144 131 143 164 194 186 177 166 160 153 131
Height
1512 1514 1514 1513 1514 1515 1515 1516 1516 1515 1515 1515 1514 1513 1512 1511 1510 1509 1507 1506 1506 1505 1504 1502 1502 1502 1501 1500 1502 1501 1500 1500 1501 1502 1500 1499 1499 1498 1498 1498 1496 1493 1494
1512 1515 1514 1514 1513 1512 1513 1513 1513 1512 1512 1512 1511 1510 1508 1507 1506 1504 1502 1500 1499 1497 1496 1495 1494 1494 1492 1492 1492 1492 1492 1492 1494 1496 1496 1493 1492 1489 1490 1489 1487 1484 1484
1515 1515 1513 1513 1513 1511 1510 1511 1510 1510 1510 1509 1508 1506 1504 1502 1500 1498 1495 1493 1492 1490 1488 1486 1485 1484 1484 1483 1484 1484 1483 1484 1484 1487 1489 1488 1484 1484 1484 1484 1481 1479 1478
1512 1513 1510 1509 1509 1508 1507 1507 1506 1505 1505 1504 1503 1501 1500 1497 1495 1492 1489 1487 1485 1483 1480 1478 1476 1475 1475 1475 1475 1475 1475 1475 1475 1476 1477 1479 1481 1482 1481 1480 1479 1476 1475
1507 1508 1506 1504 1505 1504 1504 1503 1502 1501 1500 1499 1498 1497 1495 1493 1490 1487 1484 1480 1477 1474 1471 1469 1468 1467 1466 1467 1468 1468 1468 1467 1468 1468 1470 1473 1475 1475 1476 1473 1473 1473 1472
1503 1503 1502 1501 1502 1501 1501 1501 1499 1498 1496 1495 1494 1493 1491 1489 1486 1482 1478 1473 1468 1463 1459 1459 1459 1459 1459 1459 1460 1461 1461 1461 1461 1462 1464 1467 1469 1469 1470 1469 1468 1467 1469
1500 1499 1499 1498 1499 1499 1498 1498 1497 1495 1493 1492 1491 1490 1488 1485 1482 1478 1473 1467 1461 1455 1449 1448 1451 1452 1452 1453 1454 1454 1454 1455 1456 1457 1458 1460 1463 1464 1465 1465 1465 1464 1465
1496 1496 1496 1496 1497 1497 1496 1495 1494 1492 1490 1489 1488 1487 1485 1482 1479 1474 1469 1464 1457 1452 1446 1444 1446 1447 1447 1447 1448 1449 1448 1449 1450 1451 1452 1454 1457 1459 1459 1461 1463 1461 1465
1492 1492 1492 1491 1493 1493 1493 1492 1491 1489 1487 1485 1484 1483 1481 1479 1475 1470 1466 1460 1455 1451 1448 1445 1444 1444 1444 1444 1444 1442 1442 1443 1445 1446 1447 1449 1453 1455 1458 1460 1460 1460 1464
1491 1490 1490 1490 1490 1490 1490 1489 1488 1485 1484 1481 1480 1479 1477 1475 1472 1468 1465 1460 1455 1451 1448 1445 1444 1443 1442 1441 1440 1440 1441 1442 1443 1444 1446 1448 1451 1454 1458 1458 1458 1460 1463
1492 1491 1490 1488 1487 1487 1487 1487 1485 1482 1481 1479 1477 1475 1473 1471 1469 1466 1463 1459 1455 1452 1450 1447 1444 1443 1442 1440 1439 1438 1439 1440 1441 1442 1446 1448 1450 1453 1456 1456 1459 1461 1463
1492 1490 1488 1485 1484 1484 1484 1483 1481 1479 1478 1477 1475 1471 1470 1467 1466 1464 1462 1459 1456 1453 1450 1448 1446 1444 1442 1441 1439 1437 1440 1443 1445 1446 1448 1451 1451 1453 1455 1457 1459 1461 1463
1492 1489 1486 1484 1483 1482 1481 1480 1479 1477 1475 1474 1472 1469 1466 1465 1463 1462 1460 1459 1457 1454 1452 1450 1448 1446 1444 1443 1441 1440 1443 1446 1448 1449 1450 1451 1453 1454 1455 1457 1459 1461 1463
1491 1488 1485 1483 1483 1483 1481 1479 1475 1473 1471 1470 1468 1466 1464 1463 1461 1459 1458 1458 1457 1455 1452 1451 1449 1447 1446 1446 1445 1445 1447 1449 1450 1452 1452 1453 1454 1455 1456 1458 1460 1461 1464
1492 1491 1488 1485 1483 1483 1480 1477 1472 1469 1468 1466 1464 1462 1461 1461 1460 1458 1456 1456 1457 1455 1454 1452 1451 1450 1448 1450 1451 1450 1451 1452 1452 1453 1453 1454 1456 1458 1460 1460 1462 1464 1467
1495 1492 1488 1484 1483 1481 1478 1475 1470 1467 1464 1462 1460 1459 1457 1457 1457 1456 1455 1455 1456 1455 1455 1454 1454 1453 1453 1455 1457 1458 1456 1455 1455 1456 1457 1458 1459 1462 1462 1462 1463 1465 1467
1494 1491 1487 1483 1480 1476 1474 1468 1465 1463 1460 1460 1456 1454 1453 1452 1452 1453 1453 1453 1454 1454 1454 1456 1456 1456 1457 1459 1460 1461 1460 1460 1460 1460 1461 1462 1463 1463 1464 1465 1466 1467 1469
1492 1490 1485 1478 1474 1471 1467 1462 1459 1457 1453 1453 1452 1450 1449 1448 1447 1447 1450 1451 1451 1453 1454 1456 1457 1458 1459 1461 1462 1463 1463 1462 1463 1464 1465 1465 1464 1464 1466 1467 1467 1468 1469
1484 1481 1479 1475 1471 1466 1461 1457 1454 1450 1446 1446 1446 1444 1443 1443 1443 1443 1444 1447 1449 1451 1453 1455 1457 1458 1459 1461 1463 1464 1464 1465 1465 1464 1465 1465 1465 1465 1465 1466 1467 1468 1468
1477 1474 1471 1468 1467 1461 1455 1451 1449 1447 1443 1441 1439 1439 1438 1437 1438 1438 1438 1443 1447 1449 1452 1453 1456 1459 1459 1461 1462 1464 1465 1466 1466 1466 1467 1467 1466 1465 1466 1467 1468 1468 1469
1476 1471 1465 1462 1459 1456 1451 1447 1441 1440 1437 1433 1430 1429 1429 1431 1432 1432 1433 1437 1443 1446 1449 1452 1454 1457 1459 1459 1461 1463 1465 1466 1467 1468 1468 1468 1467 1467 1468 1468 1469 1469 1471
1470 1465 1462 1458 1453 1448 1444 1441 1437 1433 1430 1427 1421 1418 1419 1421 1424 1425 1428 1431 1437 1441 1445 1448 1451 1454 1456 1457 1460 1462 1464 1465 1466 1467 1468 1468 1469 1469 1470 1470 1469 1470 1472
1463 1460 1456 1450 1444 1441 1439 1436 1432 1428 1422 1420 1414 1409 1410 1411 1415 1417 1421 1426 1430 1435 1439 1443 1446 1450 1452 1454 1457 1460 1463 1465 1466 1468 1469 1470 1470 1471 1472 1472 1472 1473 1473
1454 1451 1446 1440 1436 1433 1430 1426 1423 1420 1414 1410 1406 1402 1404 1402 1404 1409 1412 1418 1423 1428 1432 1436 1441 1444 1448 1450 1453 1457 1461 1464 1466 1468 1469 1471 1472 1473 1474 1474 1474 1474 1474
1442 1440 1436 1429 1425 1422 1419 1415 1413 1411 1406 1402 1400 1398 1397 1396 1396 1400 1403 1409 1414 1420 1425 1430 1435 1440 1443 1446 1449 1453 1457 1461 1465 1466 1468 1469 1472 1473 1473 1473 1474 1474 1474
1432 1428 1424 1419 1414 1412 1409 1407 1403 1399 1396 1393 1392 1390 1390 1389 1389 1392 1396 1401 1407 1414 1421 1426 1431 1435 1440 1444 1446 1450 1455 1458 1461 1464 1465 1468 1470 1472 1472 1473 1474 1474 1474